Bezoek ook deze websites:

Mijn andere website

Weerstation Noordbergum

Weerstation in Leuven


U vindt ons ook hier:

Weather Underground


Select another period ( hide this area )

Eenheden Periode Custom range Directly to
Metrisch Engels Beide
Dagelijkse Wekelijkse Maandelijkse Jaarlijkse
use both date-selectors for a custom range
previous Dag
With this date

WeatherUnderground graphs for this period ( click here )


Dagelijkse Samenvatting Zondag 15 september 2019
Tijd Temp. ( °C ) Dew pt. ( °C ) Wind ( km/h ) van Windvlaag ( km/h ) Luchtdruk ( hPa ) Humid.( % ) Rainrate ( cm )
Hoog19,3 10,6 22,7 Westen ( 231/1069 ) 24,1 1026,3 60 -
Gemiddeld14,2 3,9 3,9 Kalm #126/273 6,6 1021,8 50 -
Laag9,2 -4,2 -   0,0 1020,5 38 -
Dagelijkse Tabular details for Zondag 15 september 2019
Tijd Temp. ( °C ) Dew pt. ( °C ) Wind ( km/h ) van Windvlaag ( km/h ) Luchtdruk ( hPa ) Humid.( % ) Rainrate ( cm )
00:04 10,0 -2,3   Kalm   1026,3 42 -
00:09 10,0 -2,7   Kalm   1026,0 41 -
00:14 9,9 -2,7   Kalm   1026,0 41 -
00:19 9,9 -2,7   Kalm   1026,0 41 -
00:24 9,8 -2,8   Kalm   1026,0 41 -
00:29 9,8 -2,8   Kalm   1026,0 41 -
00:34 9,8 -2,8   Kalm   1026,0 41 -
00:39 9,8 -2,8   Kalm   1026,0 41 -
00:44 9,7 -2,9   Kalm   1026,0 41 -
00:49 9,6 -3,0   Kalm   1025,6 41 -
00:54 9,6 -3,0   Kalm   1025,6 41 -
00:59 9,6 -3,3   Kalm   1025,6 40 -
01:04 9,6 -3,3   Kalm   1025,3 40 -
01:09 9,6 -3,7   Kalm   1025,3 39 -
01:14 9,7 -3,6   Kalm   1025,3 39 -
01:19 9,8 -3,9   Kalm   1025,3 38 -
01:24 9,8 -3,5   Kalm   1024,9 39 -
01:29 9,6 -3,7   Kalm   1024,9 39 -
01:34 9,3 -3,6   Kalm   1024,9 40 -
01:39 9,2 -4,0   Kalm   1024,9 39 -
01:44 9,3 -4,0   Kalm   1024,9 39 -
01:49 9,4 -4,2   Kalm   1024,9 38 -
01:54 9,7 -3,9   Kalm   1024,9 38 -
01:59 9,9 -3,8   Kalm   1024,6 38 -
02:04 10,2 -3,1   Kalm   1024,6 39 -
02:09 10,4 -2,6   Kalm   1024,6 40 -
02:14 10,6 -2,1   Kalm   1024,3 41 -
02:19 10,7 -1,7   Kalm   1024,3 42 -
02:24 10,8 -1,3   Kalm   1024,3 43 -
02:29 10,9 -0,6   Kalm   1024,3 45 -
02:34 11,1 -0,1   Kalm   1024,3 46 -
02:39 11,1 0,5   Kalm   1024,3 48 -
02:44 11,1 0,8   Kalm   1023,9 49 -
02:49 11,0 1,0   Kalm   1023,9 50 -
02:54 10,9 1,2   Kalm   1023,9 51 -
02:59 10,9 1,2   Kalm   1023,6 51 -
03:04 10,9 1,2   Kalm   1023,6 51 -
03:09 10,8 1,1   Kalm   1023,6 51 -
03:14 10,7 1,0   Kalm   1023,6 51 -
03:19 10,6 0,6 3,2 WZW 3,2 1023,6 50 -
03:24 10,7 0,7 3,2 WZW 3,2 1023,6 50 -
03:29 10,7 0,7   Kalm   1023,2 50 -
03:34 10,7 0,7   Kalm   1023,2 50 -
03:39 10,6 0,6   Kalm   1023,2 50 -
03:44 10,6 0,3   Kalm   1023,2 49 -
03:49 10,7 0,4   Kalm   1023,2 49 -
03:54 10,8 0,5   Kalm   1022,9 49 -
03:59 10,9 0,6   Kalm   1022,9 49 -
04:04 10,9 0,6   Kalm   1022,9 49 -
04:09 10,9 0,9   Kalm   1022,9 50 -
04:14 10,9 0,9   Kalm   1022,9 50 -
04:19 10,9 0,9   Kalm   1022,9 50 -
04:24 11,0 1,2   Kalm   1022,9 51 -
04:29 11,1 1,3   Kalm   1022,9 51 -
04:34 11,1 1,6   Kalm   1022,6 52 -
04:39 11,1 1,9   Kalm   1022,6 53 -
04:44 11,1 1,9   Kalm   1022,6 53 -
04:49 11,1 2,1   Kalm 1,6 1022,6 54 -
04:54 11,1 2,1   Kalm   1022,6 54 -
04:59 11,2 2,2   Kalm   1022,2 54 -
05:04 11,3 2,3   Kalm   1022,2 54 -
05:09 11,3 2,6   Kalm   1022,2 55 -
05:14 11,4 2,7 4,7 WZW 6,4 1022,2 55 -
05:19 11,4 2,7 4,7 WZW 6,4 1022,2 55 -
05:24 11,4 2,9 3,2 Zuiden 4,8 1022,2 56 -
05:29 11,4 2,9 3,2 ZZW 4,8 1022,2 56 -
05:34 11,5 3,0   Kalm 6,4 1021,9 56 -
05:39 11,5 3,0 3,2 WZW 4,8 1021,9 56 -
05:44 11,5 2,8 3,2 WZW 4,8 1021,9 55 -
05:49 11,5 2,8 3,2 WZW 6,4 1021,9 55 -
05:54 11,4 2,7 3,2 WZW 4,8 1021,6 55 -
05:59 11,3 2,3 4,7 WZW 4,8 1021,6 54 -
06:04 11,3 2,3 4,7 WZW 4,8 1021,6 54 -
06:09 11,3 2,1 4,7 WZW 4,8 1021,2 53 -
06:14 11,3 2,1   Kalm 3,2 1021,2 53 -
06:19 11,3 1,8   Kalm   1021,2 52 -
06:24 11,3 1,8 3,2 ZZW 4,8 1021,2 52 -
06:29 11,3 1,8 3,2 ZW 3,2 1021,2 52 -
06:34 11,2 1,4 1,4 ZW 4,8 1021,2 51 -
06:39 11,2 1,4 1,4 ZW 3,2 1021,2 51 -
06:44 11,1 1,3   Kalm   1021,2 51 -
06:49 10,9 0,9   Kalm   1021,2 50 -
06:54 10,9 0,6   Kalm   1021,2 49 -
06:59 11,0 0,7 3,2 Zuiden 4,8 1021,2 49 -
07:04 11,1 0,5 3,2 Zuiden 3,2 1021,2 48 -
07:09 11,1 0,5 4,7 Zuiden 4,8 1021,2 48 -
07:14 11,1 0,5 3,2 Zuiden 3,2 1021,2 48 -
07:19 11,1 0,5 1,4 ZZW 3,2 1021,2 48 -
07:24 11,0 0,4   Kalm   1021,2 48 -
07:29 11,0 0,1   Kalm   1021,2 47 -
07:34 10,9 0,0   Kalm   1021,2 47 -
07:39 10,9 -0,3   Kalm   1021,2 46 -
07:44 10,8 -0,4   Kalm   1021,2 46 -
07:49 10,7 -0,5   Kalm   1021,2 46 -
07:54 10,7 -0,8   Kalm   1021,2 45 -
07:59 11,0 -1,1   Kalm   1021,2 43 -
08:04 11,6 -1,2 6,4 ZW 9,7 1021,2 41 -
08:09 12,2 -1,0 3,2 ZW 8,0 1021,2 40 -
08:14 12,6 -0,3 3,2 WZW 6,4 1021,2 41 -
08:19 12,8 0,2 6,4 ZW 12,9 1020,9 42 -
08:24 12,9 0,6 4,7 ZW 8,0 1021,2 43 -
08:29 13,1 0,8 9,7 WZW 9,7 1021,2 43 -
08:34 13,2 0,9 3,2 WZW 8,0 1021,2 43 -
08:39 13,3 0,7   Kalm 16,1 1020,9 42 -
08:44 13,6 0,9   Kalm 6,4 1020,9 42 -
08:50 13,8 0,8 6,4 WZW 9,7 1020,9 41 -
08:55 13,9 0,9 4,7 ZW 9,7 1020,9 41 -
09:00 14,2 0,8 6,4 ZW 9,7 1020,9 40 -
09:05 14,3 0,9 9,7 ZZW 11,3 1020,9 40 -
09:10 14,5 1,1 3,2 ZW 8,0 1020,9 40 -
09:15 14,5 1,1 14,3 WZW 14,5 1020,9 40 -
09:20 14,7 1,2 3,2 ZZW 14,5 1021,2 40 -
09:25 14,8 1,3 9,7 ZW 16,1 1020,9 40 -
09:30 14,9 1,4 4,7 ZW 11,3 1020,9 40 -
09:35 14,9 1,8 7,9 ZW 14,5 1020,9 41 -
09:40 15,0 1,9 6,4 ZW 9,7 1020,9 41 -
09:45 15,1 1,6 11,1 ZZW 19,3 1020,9 40 -
09:50 15,3 1,8 7,9 ZW 20,9 1020,5 40 -
09:55 15,4 1,9 7,9 ZW 11,3 1020,9 40 -
10:00 15,5 2,0 7,9 ZW 16,1 1020,5 40 -
10:05 15,7 2,1 9,7 ZW 16,1 1020,5 40 -
10:10 15,8 2,2 7,9 ZW 14,5 1020,5 40 -
10:15 16,1 2,5 14,3 WZW 14,5 1020,5 40 -
10:20 16,2 2,6 7,9 ZW 17,7 1020,5 40 -
10:25 16,6 2,9 6,4 WZW 12,9 1020,9 40 -
10:30 16,9 3,6 7,9 WZW 12,9 1020,9 41 -
10:35 17,2 4,2 4,7 ZZW 14,5 1020,9 42 -
10:40 17,4 4,7 11,1 WZW 19,3 1020,9 43 -
10:45 17,6 5,2 20,9 Westen 20,9 1020,9 44 -
10:50 17,7 5,6 6,4 Westen 16,1 1020,9 45 -
10:55 17,8 6,3 14,3 ZZW 20,9 1020,9 47 -
11:00 17,7 6,8 9,7 Westen 22,5 1020,9 49 -
11:05 17,8 6,9 9,7 Westen 14,5 1020,9 49 -
11:10 17,8 6,9 9,7 ZW 14,5 1020,9 49 -
11:15 18,0 7,1 6,4 WZW 14,5 1020,9 49 -
11:20 18,2 7,6 11,1 Westen 14,5 1020,9 50 -
11:25 18,3 8,0 6,4 Westen 11,3 1020,9 51 -
11:30 18,5 8,2 11,1 Westen 14,5 1020,9 51 -
11:35 18,5 8,7 7,9 ZW 24,1 1020,9 53 -
11:40 18,5 8,7 4,7 Westen 16,1 1020,9 53 -
11:45 18,7 9,2 9,7 Westen 17,7 1020,9 54 -
11:50 18,9 9,4 9,7 Westen 16,1 1020,9 54 -
11:55 19,0 9,8 13,0 Westen 20,9 1020,9 55 -
12:00 18,8 9,6 7,9 NW 14,5 1020,9 55 -
12:05 18,6 9,6 13,0 Westen 17,7 1020,9 56 -
12:10 18,5 9,8 11,1 Westen 20,9 1020,9 57 -
12:15 19,1 10,1 6,4 Westen 11,3 1020,9 56 -
12:20 19,3 10,6 16,3 ZW 22,5 1020,9 57 -
12:25 19,3 10,3 7,9 NW 12,9 1020,9 56 -
12:30 18,8 10,1 9,7 WNW 14,5 1020,9 57 -
12:35 18,8 10,1 11,1 Westen 12,9 1020,9 57 -
12:40 18,7 9,7 6,4 Westen 11,3 1020,9 56 -
12:45 18,5 9,6 7,9 NW 12,9 1020,5 56 -
12:50 18,4 9,2 6,4 NW 8,0 1020,9 55 -
12:55 18,2 9,0   Kalm 12,9 1020,9 55 -
13:00 18,3 9,4 13,0 WNW 16,1 1020,9 56 -
13:05 18,3 9,1 3,2 WNW 12,9 1020,9 55 -
13:10 18,3 9,1   Kalm 6,4 1020,9 55 -
13:15 18,2 8,7 4,7 Westen 14,5 1020,9 54 -
13:20 18,3 8,8 4,7 NW 8,0 1020,9 54 -
13:25 18,2 8,7 9,7 WNW 22,5 1020,9 54 -
13:30 18,3 8,8 4,7 WNW 6,4 1020,9 54 -
13:35 18,2 8,7 7,9 WNW 17,7 1020,9 54 -
13:40 18,4 8,6 7,9 NW 11,3 1020,9 53 -
13:45 18,5 9,0 11,1 Westen 16,1 1020,9 54 -
13:50 18,4 9,2 11,1 Westen 14,5 1020,9 55 -
13:55 18,3 9,4 9,7 Westen 14,5 1020,9 56 -
14:00 18,2 9,3 9,7 Westen 14,5 1020,9 56 -
14:05 18,2 9,0 11,1 WNW 19,3 1020,9 55 -
14:10 18,3 8,8 13,0 Westen 14,5 1020,9 54 -
14:15 18,5 8,7 4,7 WNW 12,9 1020,9 53 -
14:20 18,7 9,2 14,3 WNW 14,5 1020,9 54 -
14:25 18,7 9,5 13,0 WNW 16,1 1020,9 55 -
14:30 18,4 9,2 11,1 WNW 12,9 1020,9 55 -
14:35 18,2 9,0 6,4 WNW 17,7 1020,9 55 -
14:40 18,3 8,8 11,1 Westen 16,1 1020,9 54 -
14:45 18,8 9,0 6,4 NW 8,0 1020,9 53 -
14:50 18,5 9,6 9,7 NNW 14,5 1020,9 56 -
14:55 18,3 9,4 9,7 NW 12,9 1020,9 56 -
15:00 18,2 9,3 7,9 NW 14,5 1020,9 56 -
15:05 18,2 9,0 3,2 WNW 8,0 1020,9 55 -
15:10 18,1 9,2 7,9 NW 14,5 1020,9 56 -
15:15 18,1 8,9 4,7 NW 8,0 1020,9 55 -
15:20 18,1 9,2 7,9 NW 12,9 1020,9 56 -
15:25 18,1 9,4 9,7 NW 16,1 1020,9 57 -
15:30 18,1 9,4 22,7 WNW 22,5 1020,9 57 -
15:35 18,1 9,2 7,9 NW 12,9 1020,9 56 -
15:40 18,0 9,1 3,2 WNW 9,7 1020,9 56 -
15:45 17,9 9,0 6,4 NNW 12,9 1020,9 56 -
15:50 17,8 8,6 1,4 NNW 11,3 1020,9 55 -
15:55 17,9 8,5 7,9 NNW 8,0 1020,9 54 -
16:00 17,8 8,4 6,4 NW 12,9 1020,9 54 -
16:05 17,6 8,2 6,4 NW 16,1 1020,9 54 -
16:10 17,5 8,1 7,9 NW 9,7 1020,9 54 -
16:15 17,4 7,7 6,4 NNW 9,7 1020,9 53 -
16:20 17,4 7,7 6,4 NW 6,4 1020,9 53 -
16:25 17,2 7,8 7,9 NNW 12,9 1020,9 54 -
16:30 17,1 8,0 4,7 NNW 12,9 1020,9 55 -
16:35 17,1 8,0 4,7 NNW 9,7 1020,9 55 -
16:40 17,2 7,8 6,4 NW 8,0 1020,9 54 -
16:45 17,2 7,8 4,7 NW 9,7 1020,9 54 -
16:50 17,3 7,9 6,4 NW 12,9 1020,9 54 -
16:55 17,3 7,9 4,7 NNW 9,7 1020,9 54 -
17:00 17,2 7,8 4,7 NNW 9,7 1020,9 54 -
17:05 17,2 7,8 4,7 NW 6,4 1020,9 54 -
17:10 17,2 7,8 4,7 NNW 9,7 1020,9 54 -
17:15 17,1 7,7 9,7 NW 9,7 1021,2 54 -
17:20 17,1 7,7 7,9 Noorden 14,5 1021,2 54 -
17:25 16,8 7,2 16,3 NNW 22,5 1021,2 53 -
17:30 16,6 6,7 13,0 NNW 16,1 1021,2 52 -
17:35 16,6 6,4 6,4 NNW 6,4 1021,2 51 -
17:40 16,5 6,0 4,7 NNW 8,0 1021,2 50 -
17:45 16,4 5,9 3,2 NNW 14,5 1021,2 50 -
17:50 16,4 5,9 7,9 NNW 14,5 1021,2 50 -
17:55 16,4 5,9 9,7 Noorden 9,7 1021,2 50 -
18:00 16,3 6,4 3,2 Noorden 9,7 1021,2 52 -
18:05 16,2 6,3 1,4 Noorden 8,0 1021,2 52 -
18:10 16,2 6,3 7,9 Noorden 8,0 1021,2 52 -
18:15 16,1 6,2   Kalm 8,0 1021,2 52 -
18:20 15,9 6,6 7,9 Noorden 12,9 1021,2 54 -
18:25 15,8 6,8 9,7 NNW 12,9 1021,2 55 -
18:30 15,8 7,0 9,7 NNW 9,7 1021,2 56 -
18:35 15,7 6,9 4,7 NNW 8,0 1021,2 56 -
18:40 15,7 6,9 6,4 NNW 8,0 1021,2 56 -
18:45 15,6 6,9 4,7 NNW 8,0 1021,2 56 -
18:50 15,5 7,0 1,4 NNW 6,4 1021,2 57 -
18:55 15,4 6,9   Kalm   1021,2 57 -
19:00 15,4 6,9   Kalm   1021,2 57 -
19:05 15,4 6,7   Kalm   1021,2 56 -
19:10 15,3 6,8   Kalm 4,8 1021,2 57 -
19:15 15,3 6,8   Kalm   1021,2 57 -
19:20 15,2 6,7   Kalm   1021,2 57 -
19:25 15,2 6,7   Kalm   1021,2 57 -
19:30 15,1 6,9   Kalm   1021,2 58 -
19:35 15,0 6,8   Kalm   1021,2 58 -
19:40 14,8 6,9   Kalm   1021,2 59 -
19:45 14,8 6,9   Kalm   1021,2 59 -
19:50 14,6 6,7   Kalm   1021,2 59 -
19:55 14,5 6,8   Kalm   1021,2 60 -
20:00 14,5 6,8   Kalm   1021,2 60 -
20:05 14,5 6,8   Kalm   1021,2 60 -
20:10 14,5 6,6   Kalm   1021,2 59 -
20:15 14,5 6,6   Kalm   1021,2 59 -
20:20 14,4 6,5   Kalm   1021,2 59 -
20:25 14,3 6,4   Kalm   1021,2 59 -
20:30 14,2 6,3   Kalm   1021,2 59 -
20:35 14,2 6,3   Kalm   1021,2 59 -
20:40 14,2 6,3   Kalm   1021,2 59 -
20:45 14,1 6,2   Kalm   1020,9 59 -
20:50 13,9 5,8   Kalm   1021,2 58 -
20:55 13,9 5,8   Kalm   1021,2 58 -
21:00 13,8 5,7   Kalm   1020,9 58 -
21:05 13,6 5,2   Kalm 3,2 1020,9 57 -
21:10 13,4 4,8   Kalm   1021,2 56 -
21:15 13,3 4,4   Kalm   1021,2 55 -
21:20 13,2 4,1   Kalm   1021,2 54 -
21:25 13,1 4,0   Kalm   1021,2 54 -
21:30 13,0 3,9   Kalm   1021,2 54 -
21:35 12,9 3,3   Kalm   1021,2 52 -
21:40 12,8 2,9   Kalm   1021,2 51 -
21:45 12,8 2,6   Kalm   1021,2 50 -
21:50 12,8 2,3   Kalm   1021,2 49 -
21:55 12,7 2,3   Kalm   1021,2 49 -
22:00 12,7 2,0   Kalm   1021,2 48 -
22:05 12,8 1,5   Kalm   1021,2 46 -
22:10 12,9 1,6   Kalm   1021,2 46 -
22:15 12,9 1,6   Kalm   1021,2 46 -
22:20 12,9 1,6   Kalm   1021,2 46 -
22:25 12,9 1,2   Kalm   1021,2 45 -
22:30 13,0 1,3   Kalm   1020,9 45 -
22:35 13,0 1,0   Kalm   1020,9 44 -
22:40 13,0 1,0   Kalm   1020,9 44 -
22:45 12,9 0,9   Kalm   1020,9 44 -
Dagelijkse Samenvatting Zondag 15 september 2019
Tijd Temp. ( °C ) Dew pt. ( °C ) Wind ( km/h ) van Windvlaag ( km/h ) Luchtdruk ( hPa ) Humid.( % ) Rainrate ( cm )
Hoog19,3 10,6 22,7 Westen ( 231/1069 ) 24,1 1026,3 60 -
Gemiddeld14,2 3,9 3,9 Kalm #126/273 6,6 1021,8 50 -
Laag9,2 -4,2 -   0,0 1020,5 38 -
Dagelijkse Tabular details for Zondag 15 september 2019
Tijd Temp. ( °C ) Dew pt. ( °C ) Wind ( km/h ) van Windvlaag ( km/h ) Luchtdruk ( hPa ) Humid.( % ) Rainrate ( cm )
00:04 10,0 -2,3   Kalm   1026,3 42 -
00:09 10,0 -2,7   Kalm   1026,0 41 -
00:14 9,9 -2,7   Kalm   1026,0 41 -
00:19 9,9 -2,7   Kalm   1026,0 41 -
00:24 9,8 -2,8   Kalm   1026,0 41 -
00:29 9,8 -2,8   Kalm   1026,0 41 -
00:34 9,8 -2,8   Kalm   1026,0 41 -
00:39 9,8 -2,8   Kalm   1026,0 41 -
00:44 9,7 -2,9   Kalm   1026,0 41 -
00:49 9,6 -3,0   Kalm   1025,6 41 -
00:54 9,6 -3,0   Kalm   1025,6 41 -
00:59 9,6 -3,3   Kalm   1025,6 40 -
01:04 9,6 -3,3   Kalm   1025,3 40 -
01:09 9,6 -3,7   Kalm   1025,3 39 -
01:14 9,7 -3,6   Kalm   1025,3 39 -
01:19 9,8 -3,9   Kalm   1025,3 38 -
01:24 9,8 -3,5   Kalm   1024,9 39 -
01:29 9,6 -3,7   Kalm   1024,9 39 -
01:34 9,3 -3,6   Kalm   1024,9 40 -
01:39 9,2 -4,0   Kalm   1024,9 39 -
01:44 9,3 -4,0   Kalm   1024,9 39 -
01:49 9,4 -4,2   Kalm   1024,9 38 -
01:54 9,7 -3,9   Kalm   1024,9 38 -
01:59 9,9 -3,8   Kalm   1024,6 38 -
02:04 10,2 -3,1   Kalm   1024,6 39 -
02:09 10,4 -2,6   Kalm   1024,6 40 -
02:14 10,6 -2,1   Kalm   1024,3 41 -
02:19 10,7 -1,7   Kalm   1024,3 42 -
02:24 10,8 -1,3   Kalm   1024,3 43 -
02:29 10,9 -0,6   Kalm   1024,3 45 -
02:34 11,1 -0,1   Kalm   1024,3 46 -
02:39 11,1 0,5   Kalm   1024,3 48 -
02:44 11,1 0,8   Kalm   1023,9 49 -
02:49 11,0 1,0   Kalm   1023,9 50 -
02:54 10,9 1,2   Kalm   1023,9 51 -
02:59 10,9 1,2   Kalm   1023,6 51 -
03:04 10,9 1,2   Kalm   1023,6 51 -
03:09 10,8 1,1   Kalm   1023,6 51 -
03:14 10,7 1,0   Kalm   1023,6 51 -
03:19 10,6 0,6 3,2 WZW 3,2 1023,6 50 -
03:24 10,7 0,7 3,2 WZW 3,2 1023,6 50 -
03:29 10,7 0,7   Kalm   1023,2 50 -
03:34 10,7 0,7   Kalm   1023,2 50 -
03:39 10,6 0,6   Kalm   1023,2 50 -
03:44 10,6 0,3   Kalm   1023,2 49 -
03:49 10,7 0,4   Kalm   1023,2 49 -
03:54 10,8 0,5   Kalm   1022,9 49 -
03:59 10,9 0,6   Kalm   1022,9 49 -
04:04 10,9 0,6   Kalm   1022,9 49 -
04:09 10,9 0,9   Kalm   1022,9 50 -
04:14 10,9 0,9   Kalm   1022,9 50 -
04:19 10,9 0,9   Kalm   1022,9 50 -
04:24 11,0 1,2   Kalm   1022,9 51 -
04:29 11,1 1,3   Kalm   1022,9 51 -
04:34 11,1 1,6   Kalm   1022,6 52 -
04:39 11,1 1,9   Kalm   1022,6 53 -
04:44 11,1 1,9   Kalm   1022,6 53 -
04:49 11,1 2,1   Kalm 1,6 1022,6 54 -
04:54 11,1 2,1   Kalm   1022,6 54 -
04:59 11,2 2,2   Kalm   1022,2 54 -
05:04 11,3 2,3   Kalm   1022,2 54 -
05:09 11,3 2,6   Kalm   1022,2 55 -
05:14 11,4 2,7 4,7 WZW 6,4 1022,2 55 -
05:19 11,4 2,7 4,7 WZW 6,4 1022,2 55 -
05:24 11,4 2,9 3,2 Zuiden 4,8 1022,2 56 -
05:29 11,4 2,9 3,2 ZZW 4,8 1022,2 56 -
05:34 11,5 3,0   Kalm 6,4 1021,9 56 -
05:39 11,5 3,0 3,2 WZW 4,8 1021,9 56 -
05:44 11,5 2,8 3,2 WZW 4,8 1021,9 55 -
05:49 11,5 2,8 3,2 WZW 6,4 1021,9 55 -
05:54 11,4 2,7 3,2 WZW 4,8 1021,6 55 -
05:59 11,3 2,3 4,7 WZW 4,8 1021,6 54 -
06:04 11,3 2,3 4,7 WZW 4,8 1021,6 54 -
06:09 11,3 2,1 4,7 WZW 4,8 1021,2 53 -
06:14 11,3 2,1   Kalm 3,2 1021,2 53 -
06:19 11,3 1,8   Kalm   1021,2 52 -
06:24 11,3 1,8 3,2 ZZW 4,8 1021,2 52 -
06:29 11,3 1,8 3,2 ZW 3,2 1021,2 52 -
06:34 11,2 1,4 1,4 ZW 4,8 1021,2 51 -
06:39 11,2 1,4 1,4 ZW 3,2 1021,2 51 -
06:44 11,1 1,3   Kalm   1021,2 51 -
06:49 10,9 0,9   Kalm   1021,2 50 -
06:54 10,9 0,6   Kalm   1021,2 49 -
06:59 11,0 0,7 3,2 Zuiden 4,8 1021,2 49 -
07:04 11,1 0,5 3,2 Zuiden 3,2 1021,2 48 -
07:09 11,1 0,5 4,7 Zuiden 4,8 1021,2 48 -
07:14 11,1 0,5 3,2 Zuiden 3,2 1021,2 48 -
07:19 11,1 0,5 1,4 ZZW 3,2 1021,2 48 -
07:24 11,0 0,4   Kalm   1021,2 48 -
07:29 11,0 0,1   Kalm   1021,2 47 -
07:34 10,9 0,0   Kalm   1021,2 47 -
07:39 10,9 -0,3   Kalm   1021,2 46 -
07:44 10,8 -0,4   Kalm   1021,2 46 -
07:49 10,7 -0,5   Kalm   1021,2 46 -
07:54 10,7 -0,8   Kalm   1021,2 45 -
07:59 11,0 -1,1   Kalm   1021,2 43 -
08:04 11,6 -1,2 6,4 ZW 9,7 1021,2 41 -
08:09 12,2 -1,0 3,2 ZW 8,0 1021,2 40 -
08:14 12,6 -0,3 3,2 WZW 6,4 1021,2 41 -
08:19 12,8 0,2 6,4 ZW 12,9 1020,9 42 -
08:24 12,9 0,6 4,7 ZW 8,0 1021,2 43 -
08:29 13,1 0,8 9,7 WZW 9,7 1021,2 43 -
08:34 13,2 0,9 3,2 WZW 8,0 1021,2 43 -
08:39 13,3 0,7   Kalm 16,1 1020,9 42 -
08:44 13,6 0,9   Kalm 6,4 1020,9 42 -
08:50 13,8 0,8 6,4 WZW 9,7 1020,9 41 -
08:55 13,9 0,9 4,7 ZW 9,7 1020,9 41 -
09:00 14,2 0,8 6,4 ZW 9,7 1020,9 40 -
09:05 14,3 0,9 9,7 ZZW 11,3 1020,9 40 -
09:10 14,5 1,1 3,2 ZW 8,0 1020,9 40 -
09:15 14,5 1,1 14,3 WZW 14,5 1020,9 40 -
09:20 14,7 1,2 3,2 ZZW 14,5 1021,2 40 -
09:25 14,8 1,3 9,7 ZW 16,1 1020,9 40 -
09:30 14,9 1,4 4,7 ZW 11,3 1020,9 40 -
09:35 14,9 1,8 7,9 ZW 14,5 1020,9 41 -
09:40 15,0 1,9 6,4 ZW 9,7 1020,9 41 -
09:45 15,1 1,6 11,1 ZZW 19,3 1020,9 40 -
09:50 15,3 1,8 7,9 ZW 20,9 1020,5 40 -
09:55 15,4 1,9 7,9 ZW 11,3 1020,9 40 -
10:00 15,5 2,0 7,9 ZW 16,1 1020,5 40 -
10:05 15,7 2,1 9,7 ZW 16,1 1020,5 40 -
10:10 15,8 2,2 7,9 ZW 14,5 1020,5 40 -
10:15 16,1 2,5 14,3 WZW 14,5 1020,5 40 -
10:20 16,2 2,6 7,9 ZW 17,7 1020,5 40 -
10:25 16,6 2,9 6,4 WZW 12,9 1020,9 40 -
10:30 16,9 3,6 7,9 WZW 12,9 1020,9 41 -
10:35 17,2 4,2 4,7 ZZW 14,5 1020,9 42 -
10:40 17,4 4,7 11,1 WZW 19,3 1020,9 43 -
10:45 17,6 5,2 20,9 Westen 20,9 1020,9 44 -
10:50 17,7 5,6 6,4 Westen 16,1 1020,9 45 -
10:55 17,8 6,3 14,3 ZZW 20,9 1020,9 47 -
11:00 17,7 6,8 9,7 Westen 22,5 1020,9 49 -
11:05 17,8 6,9 9,7 Westen 14,5 1020,9 49 -
11:10 17,8 6,9 9,7 ZW 14,5 1020,9 49 -
11:15 18,0 7,1 6,4 WZW 14,5 1020,9 49 -
11:20 18,2 7,6 11,1 Westen 14,5 1020,9 50 -
11:25 18,3 8,0 6,4 Westen 11,3 1020,9 51 -
11:30 18,5 8,2 11,1 Westen 14,5 1020,9 51 -
11:35 18,5 8,7 7,9 ZW 24,1 1020,9 53 -
11:40 18,5 8,7 4,7 Westen 16,1 1020,9 53 -
11:45 18,7 9,2 9,7 Westen 17,7 1020,9 54 -
11:50 18,9 9,4 9,7 Westen 16,1 1020,9 54 -
11:55 19,0 9,8 13,0 Westen 20,9 1020,9 55 -
12:00 18,8 9,6 7,9 NW 14,5 1020,9 55 -
12:05 18,6 9,6 13,0 Westen 17,7 1020,9 56 -
12:10 18,5 9,8 11,1 Westen 20,9 1020,9 57 -
12:15 19,1 10,1 6,4 Westen 11,3 1020,9 56 -
12:20 19,3 10,6 16,3 ZW 22,5 1020,9 57 -
12:25 19,3 10,3 7,9 NW 12,9 1020,9 56 -
12:30 18,8 10,1 9,7 WNW 14,5 1020,9 57 -
12:35 18,8 10,1 11,1 Westen 12,9 1020,9 57 -
12:40 18,7 9,7 6,4 Westen 11,3 1020,9 56 -
12:45 18,5 9,6 7,9 NW 12,9 1020,5 56 -
12:50 18,4 9,2 6,4 NW 8,0 1020,9 55 -
12:55 18,2 9,0   Kalm 12,9 1020,9 55 -
13:00 18,3 9,4 13,0 WNW 16,1 1020,9 56 -
13:05 18,3 9,1 3,2 WNW 12,9 1020,9 55 -
13:10 18,3 9,1   Kalm 6,4 1020,9 55 -
13:15 18,2 8,7 4,7 Westen 14,5 1020,9 54 -
13:20 18,3 8,8 4,7 NW 8,0 1020,9 54 -
13:25 18,2 8,7 9,7 WNW 22,5 1020,9 54 -
13:30 18,3 8,8 4,7 WNW 6,4 1020,9 54 -
13:35 18,2 8,7 7,9 WNW 17,7 1020,9 54 -
13:40 18,4 8,6 7,9 NW 11,3 1020,9 53 -
13:45 18,5 9,0 11,1 Westen 16,1 1020,9 54 -
13:50 18,4 9,2 11,1 Westen 14,5 1020,9 55 -
13:55 18,3 9,4 9,7 Westen 14,5 1020,9 56 -
14:00 18,2 9,3 9,7 Westen 14,5 1020,9 56 -
14:05 18,2 9,0 11,1 WNW 19,3 1020,9 55 -
14:10 18,3 8,8 13,0 Westen 14,5 1020,9 54 -
14:15 18,5 8,7 4,7 WNW 12,9 1020,9 53 -
14:20 18,7 9,2 14,3 WNW 14,5 1020,9 54 -
14:25 18,7 9,5 13,0 WNW 16,1 1020,9 55 -
14:30 18,4 9,2 11,1 WNW 12,9 1020,9 55 -
14:35 18,2 9,0 6,4 WNW 17,7 1020,9 55 -
14:40 18,3 8,8 11,1 Westen 16,1 1020,9 54 -
14:45 18,8 9,0 6,4 NW 8,0 1020,9 53 -
14:50 18,5 9,6 9,7 NNW 14,5 1020,9 56 -
14:55 18,3 9,4 9,7 NW 12,9 1020,9 56 -
15:00 18,2 9,3 7,9 NW 14,5 1020,9 56 -
15:05 18,2 9,0 3,2 WNW 8,0 1020,9 55 -
15:10 18,1 9,2 7,9 NW 14,5 1020,9 56 -
15:15 18,1 8,9 4,7 NW 8,0 1020,9 55 -
15:20 18,1 9,2 7,9 NW 12,9 1020,9 56 -
15:25 18,1 9,4 9,7 NW 16,1 1020,9 57 -
15:30 18,1 9,4 22,7 WNW 22,5 1020,9 57 -
15:35 18,1 9,2 7,9 NW 12,9 1020,9 56 -
15:40 18,0 9,1 3,2 WNW 9,7 1020,9 56 -
15:45 17,9 9,0 6,4 NNW 12,9 1020,9 56 -
15:50 17,8 8,6 1,4 NNW 11,3 1020,9 55 -
15:55 17,9 8,5 7,9 NNW 8,0 1020,9 54 -
16:00 17,8 8,4 6,4 NW 12,9 1020,9 54 -
16:05 17,6 8,2 6,4 NW 16,1 1020,9 54 -
16:10 17,5 8,1 7,9 NW 9,7 1020,9 54 -
16:15 17,4 7,7 6,4 NNW 9,7 1020,9 53 -
16:20 17,4 7,7 6,4 NW 6,4 1020,9 53 -
16:25 17,2 7,8 7,9 NNW 12,9 1020,9 54 -
16:30 17,1 8,0 4,7 NNW 12,9 1020,9 55 -
16:35 17,1 8,0 4,7 NNW 9,7 1020,9 55 -
16:40 17,2 7,8 6,4 NW 8,0 1020,9 54 -
16:45 17,2 7,8 4,7 NW 9,7 1020,9 54 -
16:50 17,3 7,9 6,4 NW 12,9 1020,9 54 -
16:55 17,3 7,9 4,7 NNW 9,7 1020,9 54 -
17:00 17,2 7,8 4,7 NNW 9,7 1020,9 54 -
17:05 17,2 7,8 4,7 NW 6,4 1020,9 54 -
17:10 17,2 7,8 4,7 NNW 9,7 1020,9 54 -
17:15 17,1 7,7 9,7 NW 9,7 1021,2 54 -
17:20 17,1 7,7 7,9 Noorden 14,5 1021,2 54 -
17:25 16,8 7,2 16,3 NNW 22,5 1021,2 53 -
17:30 16,6 6,7 13,0 NNW 16,1 1021,2 52 -
17:35 16,6 6,4 6,4 NNW 6,4 1021,2 51 -
17:40 16,5 6,0 4,7 NNW 8,0 1021,2 50 -
17:45 16,4 5,9 3,2 NNW 14,5 1021,2 50 -
17:50 16,4 5,9 7,9 NNW 14,5 1021,2 50 -
17:55 16,4 5,9 9,7 Noorden 9,7 1021,2 50 -
18:00 16,3 6,4 3,2 Noorden 9,7 1021,2 52 -
18:05 16,2 6,3 1,4 Noorden 8,0 1021,2 52 -
18:10 16,2 6,3 7,9 Noorden 8,0 1021,2 52 -
18:15 16,1 6,2   Kalm 8,0 1021,2 52 -
18:20 15,9 6,6 7,9 Noorden 12,9 1021,2 54 -
18:25 15,8 6,8 9,7 NNW 12,9 1021,2 55 -
18:30 15,8 7,0 9,7 NNW 9,7 1021,2 56 -
18:35 15,7 6,9 4,7 NNW 8,0 1021,2 56 -
18:40 15,7 6,9 6,4 NNW 8,0 1021,2 56 -
18:45 15,6 6,9 4,7 NNW 8,0 1021,2 56 -
18:50 15,5 7,0 1,4 NNW 6,4 1021,2 57 -
18:55 15,4 6,9   Kalm   1021,2 57 -
19:00 15,4 6,9   Kalm   1021,2 57 -
19:05 15,4 6,7   Kalm   1021,2 56 -
19:10 15,3 6,8   Kalm 4,8 1021,2 57 -
19:15 15,3 6,8   Kalm   1021,2 57 -
19:20 15,2 6,7   Kalm   1021,2 57 -
19:25 15,2 6,7   Kalm   1021,2 57 -
19:30 15,1 6,9   Kalm   1021,2 58 -
19:35 15,0 6,8   Kalm   1021,2 58 -
19:40 14,8 6,9   Kalm   1021,2 59 -
19:45 14,8 6,9   Kalm   1021,2 59 -
19:50 14,6 6,7   Kalm   1021,2 59 -
19:55 14,5 6,8   Kalm   1021,2 60 -
20:00 14,5 6,8   Kalm   1021,2 60 -
20:05 14,5 6,8   Kalm   1021,2 60 -
20:10 14,5 6,6   Kalm   1021,2 59 -
20:15 14,5 6,6   Kalm   1021,2 59 -
20:20 14,4 6,5   Kalm   1021,2 59 -
20:25 14,3 6,4   Kalm   1021,2 59 -
20:30 14,2 6,3   Kalm   1021,2 59 -
20:35 14,2 6,3   Kalm   1021,2 59 -
20:40 14,2 6,3   Kalm   1021,2 59 -
20:45 14,1 6,2   Kalm   1020,9 59 -
20:50 13,9 5,8   Kalm   1021,2 58 -
20:55 13,9 5,8   Kalm   1021,2 58 -
21:00 13,8 5,7   Kalm   1020,9 58 -
21:05 13,6 5,2   Kalm 3,2 1020,9 57 -
21:10 13,4 4,8   Kalm   1021,2 56 -
21:15 13,3 4,4   Kalm   1021,2 55 -
21:20 13,2 4,1   Kalm   1021,2 54 -
21:25 13,1 4,0   Kalm   1021,2 54 -
21:30 13,0 3,9   Kalm   1021,2 54 -
21:35 12,9 3,3   Kalm   1021,2 52 -
21:40 12,8 2,9   Kalm   1021,2 51 -
21:45 12,8 2,6   Kalm   1021,2 50 -
21:50 12,8 2,3   Kalm   1021,2 49 -
21:55 12,7 2,3   Kalm   1021,2 49 -
22:00 12,7 2,0   Kalm   1021,2 48 -
22:05 12,8 1,5   Kalm   1021,2 46 -
22:10 12,9 1,6   Kalm   1021,2 46 -
22:15 12,9 1,6   Kalm   1021,2 46 -
22:20 12,9 1,6   Kalm   1021,2 46 -
22:25 12,9 1,2   Kalm   1021,2 45 -
22:30 13,0 1,3   Kalm   1020,9 45 -
22:35 13,0 1,0   Kalm   1020,9 44 -
22:40 13,0 1,0   Kalm   1020,9 44 -
22:45 12,9 0,9   Kalm   1020,9 44 -

Download your copy of this data-set  here

Our weather-data as stored at Weather Underground. Script ontwikkeld door Jim McMurry. Aangepast voor de template door Leuven-Template.eu

Apparatuur in gebruik:

Weerstation
Davis VP2

Weerprogramma
Meteobridge

Weercomputer
TP-link TL-MR3020

Webleverancier
Versio

Davis VP2

Meteobridge

TP-link TL-MR3020

Versio